User: anonymous   Login
Location: *
(1.3500°S, 147.5000°W)
Time: 20:44:55
(UTC+00:00)
Language:

USA 215 - Orbit

View from above orbital plane
View from above orbital plane
View from above satellite
View from above satellite

Ground track
Ground track

The orbit data is extracted from the following two-line orbital elements,

1 37162U 10046A   20173.99210226 0.00000000  00000-0  00000-0 0    07
2 37162 122.9949 351.5617 0007955 189.7569 170.2430 13.41420065    09
Epoch (UTC): 21 June 2020 23:48:37
Eccentricity: 0.0007955
inclination: 122.9949°
perigee height: 1098 km
apogee height: 1110 km
right ascension of ascending node: 351.5617°
argument of perigee: 189.7569°
revolutions per day: 13.41420065
mean anomaly at epoch: 170.2430°
orbit number at epoch: 0

The dashed part of the orbit path shows where the satellite is in the earth's shadow,  

DLR